CAPE
3 4 6 17 2 2 8 4 0 0 3 9 0 0 0 0 0 0 0 0 1 9 18 15 14 14 31
5 12 10 6 3 1 10 1 15 0 0 1 0 0 0 0 0 0 0 0 0 0 0 5 10 12 16
12 10 8 4 6 0 3 12 14 0 0 0 0 0 0 0 0 0 0 0 0 0 0 0 1 0 0
22 10 14 3 8 6 1 11 34 0 0 0 0 0 0 0 0 0 0 0 0 0 0 0 0 0 0
19 21 10 5 6 5 6 0 9 0 0 0 1 12 0 0 0 0 0 0 0 0 0 0 0 0 0
21 15 7 9 4 7 9 12 15 0 0 0 7 4 0 0 0 0 0 0 0 0 0 0 0 0 0
32 15 16 16 5 4 9 16 11 2 6 4 3 16 2 0 0 0 0 0 0 0 0 0 0 0 0
12 8 10 15 10 9 10 11 10 3 1 4 0 3 0 0 0 0 0 0 0 0 0 0 0 0 0
9 9 8 10 15 20 5 8 5 1 2 1 0 0 0 0 0 0 0 0 0 0 0 0 0 0 0
9 7 5 11 13 25 22 9 2 5 0 3 1 0 1 1 0 0 0 0 0 0 0 0 0 0 0
19 18 9 10 12 27 27 17 5 4 0 3 1 1 0 1 1 0 0 0 0 0 0 0 0 0 0
20 9 19 17 13 17 37 30 25 12 3 17 6 0 0 1 0 1 0 0 0 0 0 0 0 0 0
4 15 30 47 10 9 9 17 13 7 16 9 1 0 0 0 0 0 0 1 0 0 0 0 0 0 0
29 19 3 6 1 2 1 2 7 0 0 0 1 0 1 0 0 0 1 0 0 0 0 0 0 0 0
24 19 9 10 4 1 0 1 8 2 1 0 0 0 0 0 1 0 0 1 0 0 0 0 0 0 0
2 7 5 8 2 0 0 3 8 0 1 1 0 1 1 0 0 0 0 0 0 0 0 0 0 0 0
11 11 15 17 12 21 7 4 5 0 1 6 3 2 0 0 0 0 0 1 0 0 0 0 0 0 0
CIN
0 -1 0 0 0 0 -5 -35 0 0 -92 -101 0 0 0 0 0 0 0 0 -27 -15 -6 -3 -1 0 -1
0 0 0 0 0 0 0 -1 -23 0 0 -127 0 0 0 -12 0 0 0 0 0 -1 -1 -10 -4 0 0
0 0 0 0 0 0 0 -3 -14 0 0 0 0 0 0 0 0 0 0 0 0 0 0 0 -9 0 0
0 0 0 0 0 0 0 0 -3 -6 0 0 0 0 0 0 0 0 0 0 0 0 0 0 0 0 0
0 0 0 0 0 0 0 0 -4 0 0 0 -38 -88 0 0 0 0 0 0 0 0 0 0 0 0 -105
0 0 0 0 0 0 0 0 0 0 0 -2 -39 -68 0 0 0 0 0 0 0 0 0 0 0 0 0
0 0 0 0 0 0 0 0 0 0 0 -5 -16 -34 -26 0 0 0 0 0 0 0 0 0 0 0 0
0 0 0 0 0 0 0 0 0 0 0 0 0 -43 0 0 0 0 0 0 0 0 0 0 0 0 0
0 0 0 0 0 0 0 0 0 0 0 0 0 0 0 0 0 0 0 0 0 0 0 0 0 0 0
0 0 0 0 0 0 0 0 0 0 0 0 0 0 0 0 0 0 0 0 0 0 0 0 0 0 0
0 0 0 0 0 0 0 0 0 0 0 0 0 0 0 0 0 0 0 0 0 0 0 0 0 0 0
0 -1 0 0 -1 0 0 0 0 0 0 -1 0 0 0 0 0 0 0 0 0 0 0 0 0 0 0
0 0 0 0 -5 -11 -7 -1 -4 -2 0 0 -1 0 0 0 0 0 0 0 0 0 0 0 0 0 0
0 -1 -6 -7 -18 -17 -5 -1 0 0 0 0 0 0 0 0 0 0 0 0 0 0 0 0 0 0 0
0 0 -5 -7 -7 -15 -7 -1 0 -1 0 0 0 0 0 0 0 0 0 0 0 0 0 0 0 0 0
0 0 -1 -1 -3 -3 -6 -1 0 0 -1 -2 0 0 0 0 0 0 0 0 0 0 0 0 0 0 0
0 0 0 0 0 0 -1 -1 0 -1 -2 -1 -1 -5 0 0 0 0 0 0 0 0 0 0 0 0 0
Wind_Speed
10 11 14 14 11 15 17 17 14 27 30 30 30 28 30 30 29 26 26 27 28 27 26 26 25 24 20
12 10 11 12 13 15 14 14 15 22 27 29 30 31 30 33 30 28 26 27 27 26 26 24 25 25 23
11 10 9 8 9 11 15 15 15 23 31 29 30 31 32 27 28 29 27 25 25 24 23 24 24 25 25
10 10 8 6 7 9 11 10 14 15 20 23 25 28 31 32 29 27 28 27 25 21 23 23 24 24 24
10 9 8 7 7 5 9 10 13 11 12 12 12 14 17 27 26 31 30 30 28 28 26 25 22 23 22
11 11 12 8 3 6 8 10 10 8 13 12 12 13 13 14 24 31 30 30 29 30 27 25 25 23 22
14 13 12 9 4 5 7 9 8 11 11 11 11 12 11 12 24 28 30 31 30 27 26 27 26 24 23
12 12 12 9 6 5 8 11 12 10 8 7 8 10 10 11 24 27 28 29 30 29 29 27 25 25 24
24 24 23 22 17 8 7 6 8 8 6 4 6 9 10 10 12 26 28 29 27 29 28 27 26 24 18
12 15 18 15 19 14 8 7 6 8 4 4 3 7 2 1 9 10 13 26 27 27 28 27 27 14 11
11 10 10 10 8 8 10 9 8 11 9 6 1 4 3 3 1 9 13 12 13 14 26 27 27 22 11
9 10 10 9 7 7 10 10 11 16 11 4 3 2 3 2 5 0 11 11 12 12 12 17 25 27 22
10 8 7 7 7 6 8 10 11 11 12 12 7 7 6 3 2 7 7 7 11 11 11 12 12 12 10
8 6 6 6 7 6 7 8 8 10 10 8 6 9 3 4 3 5 7 8 7 10 10 10 10 10 13
8 8 8 9 9 7 8 8 9 9 7 5 4 10 8 5 5 6 7 5 12 11 9 8 6 10 11
7 7 7 7 8 8 7 9 11 12 11 5 5 3 1 3 6 6 8 8 7 11 9 10 9 5 7
7 7 8 8 12 8 9 11 12 13 11 7 8 9 10 11 2 4 8 4 8 9 10 10 10 9 10
Wind_Direction
289 299 308 306 320 331 203 195 192 202 206 203 199 191 192 192 187 186 188 186 188 193 193 194 196 205 206
288 292 279 312 311 297 253 193 200 197 210 209 201 196 196 196 187 184 186 187 190 191 191 194 194 199 202
281 283 295 294 310 316 315 200 201 196 202 206 202 197 192 194 191 185 183 185 189 188 189 190 194 196 198
273 280 286 295 297 302 320 307 203 192 198 200 199 198 192 191 192 182 182 179 186 193 188 192 191 196 198
281 279 277 297 306 348 303 322 233 186 188 192 191 196 196 193 192 180 183 186 189 197 193 191 193 193 196
266 272 285 292 307 303 330 316 306 191 180 190 187 191 188 193 193 186 183 191 193 197 193 190 193 196 197
260 265 277 283 291 302 307 293 285 297 299 183 184 193 187 190 180 182 185 186 188 196 193 193 192 194 197
260 265 268 273 289 289 278 300 295 284 270 224 170 198 183 187 181 183 184 188 189 192 193 192 192 194 196
255 255 258 260 257 257 253 250 289 300 305 286 175 176 184 188 184 187 187 186 193 189 193 192 193 192 197
249 258 261 260 259 252 253 244 264 295 267 224 159 142 156 307 186 184 187 191 191 192 193 194 191 197 205
244 250 244 239 238 239 229 226 238 246 253 357 355 301 87 137 99 179 188 183 193 195 194 191 188 190 180
229 237 242 241 236 240 236 230 229 243 269 262 273 324 27 266 155 38 189 186 187 191 191 194 186 182 182
233 243 242 237 248 232 250 253 253 261 249 239 224 260 231 188 219 169 153 190 180 183 182 182 184 185 170
245 237 237 244 239 241 238 242 244 247 252 240 223 224 195 222 190 193 162 169 186 183 180 187 177 180 184
250 242 237 231 235 233 236 246 249 258 258 239 225 235 246 204 240 213 188 150 187 172 161 165 179 183 183
269 265 259 244 233 221 232 241 241 241 238 219 179 148 156 256 191 183 195 188 169 166 181 179 177 187 178
262 260 259 256 249 237 219 220 238 244 240 210 202 193 203 220 174 240 193 171 155 166 173 185 184 184 173